{"data":{"norad_id":60589,"epoch":"2026-09-21T20:21:13.082976Z","epoch_age_seconds":72352,"freshness":"FRESH","line1":"1 60589U 24150G   26264.84806809  .00000138  00000+0  15223-4 0  9991","line2":"2 60589  53.1613 115.2163 0001434 108.9453 251.1705 15.34388214118088","mean_motion":15.34388214,"eccentricity":0.0001434,"inclination_deg":53.1613,"raan_deg":115.2163,"arg_perigee_deg":108.9453,"mean_anomaly_deg":251.1705,"bstar":1.5223e-5,"rev_number":11808,"period_min":93.848478948236,"perigee_km":461.75728939327,"apogee_km":463.71925242097,"semimajor_km":6840.8752709071,"source":"CELESTRAK","updated_at":"2026-09-22T09:00:49.272106Z"}}